Theta_e
312 315 316 315 314 316 315 317 318 317 314 317 317 316 316 314 313 311 313 316 315 319 317 325 325 331 331 330 329 329 329 329 328 328 329 329 329 330 331 330 328 329 329 329
311 312 312 313 313 314 315 318 318 316 315 317 317 317 315 313 313 311 312 313 313 314 315 315 317 323 328 331 331 330 329 328 328 328 328 329 330 331 330 329 329 329 330 329
311 310 310 313 315 316 316 317 315 316 317 318 319 318 315 313 311 311 310 311 311 311 312 312 312 313 316 321 325 329 329 329 329 329 328 328 329 328 329 329 330 330 331 330
309 308 310 312 315 314 318 315 318 317 322 321 315 321 314 312 310 310 310 310 311 311 310 308 310 310 309 312 318 323 324 325 327 328 328 329 330 329 329 327 327 328 328 328
309 309 310 313 312 312 316 313 317 318 320 320 318 320 316 310 311 311 312 309 308 309 310 308 307 309 308 308 311 315 316 321 323 324 325 326 326 326 326 327 327 328 328 328
308 306 308 310 310 310 311 314 316 316 318 321 317 320 315 314 310 311 311 309 309 308 308 308 307 306 306 307 308 309 310 310 315 316 318 320 321 322 324 324 325 325 325 325
310 309 307 307 312 312 312 315 323 322 322 322 313 315 314 311 311 311 311 312 311 308 308 308 308 308 305 305 307 307 307 307 309 311 310 314 315 317 318 319 322 321 320 321
311 311 310 308 310 311 312 313 319 321 320 318 312 315 315 311 308 308 310 310 311 310 309 307 306 306 306 306 305 307 309 307 308 308 309 310 310 311 312 312 312 315 316 316
311 311 308 307 308 308 312 313 311 315 310 314 312 311 308 308 306 306 306 306 305 305 307 309 306 305 304 305 307 306 308 310 311 311 311 310 310 310 310 311 312 312 312 312
310 311 307 308 308 308 310 309 313 315 318 316 313 312 309 308 308 306 305 304 303 303 302 302 302 302 302 302 303 304 305 306 308 309 309 310 311 311 311 311 311 311 312 312
310 308 309 308 311 311 312 312 310 312 312 314 314 312 307 307 307 304 302 301 301 301 300 300 299 299 299 299 300 301 301 301 302 302 304 305 306 308 309 309 310 311 311 310
309 308 311 309 306 304 308 311 310 311 312 310 311 312 308 306 305 302 300 300 299 299 299 299 298 298 298 298 298 298 298 300 301 301 301 301 302 304 305 307 307 307 307 307
309 307 311 309 308 306 309 309 310 309 308 311 313 312 306 304 303 301 300 300 299 299 299 299 299 298 298 298 297 297 297 297 300 301 301 301 301 301 302 303 303 304 304 304
307 307 308 309 306 305 309 309 309 309 313 311 309 310 306 304 303 301 300 299 299 299 299 299 299 298 298 297 296 296 297 297 297 299 301 301 301 300 301 301 301 301 301 300
306 308 304 305 303 301 305 306 307 311 309 310 309 310 307 304 303 301 300 299 299 298 299 298 298 298 297 297 296 296 296 297 298 298 298 299 300 300 300 300 300 300 300 299
299 305 301 302 300 299 299 301 302 306 309 309 307 309 306 302 302 301 299 298 298 298 298 298 298 297 297 296 296 295 295 296 297 298 298 298 299 300 299 299 300 300 299 299
301 300 302 305 294 294 300 298 301 305 307 309 311 309 305 301 302 300 299 298 298 298 298 297 297 297 296 295 295 295 295 295 296 296 297 297 298 299 300 299 299 298 298 297
296 295 294 302 295 301 300 295 296 302 303 306 304 304 300 301 301 300 298 299 298 298 297 297 296 296 296 295 295 295 295 295 295 295 296 297 297 297 298 298 298 298 298 298
297 296 293 301 300 299 297 294 296 299 301 301 303 300 298 299 299 298 297 298 298 297 296 296 295 294 295 295 295 295 295 295 295 294 295 295 296 297 297 297 297 296 296 296
294 295 299 293 300 299 297 296 295 296 299 297 301 299 299 298 300 300 298 296 296 295 295 295 295 295 295 295 295 295 295 295 295 294 294 295 295 296 296 296 296 296 296 296
297 295 298 295 300 299 295 297 295 300 300 296 298 298 299 299 299 298 295 296 295 295 295 295 295 294 295 294 294 294 294 295 295 295 294 295 295 295 296 296 296 295 295 295
300 299 297 292 298 300 293 296 297 298 297 297 296 296 298 296 295 296 296 296 295 295 294 294 294 294 295 294 294 294 294 295 295 295 294 294 294 295 295 296 295 295 294 293
300 298 299 298 300 295 294 297 297 295 298 297 298 297 296 296 296 296 296 295 295 294 294 293 293 293 295 295 294 294 294 294 294 294 294 293 294 294 295 295 295 294 293 293
294 293 297 295 297 295 295 295 295 295 297 296 297 296 296 297 296 295 294 294 293 293 293 294 294 294 295 295 295 294 294 294 294 295 296 295 293 294 294 295 294 294 293 291
296 295 296 296 295 295 295 295 296 295 295 295 294 295 296 295 295 294 294 293 293 293 293 293 292 292 293 293 294 294 295 294 294 293 293 293 293 293 293 294 295 294 294 294
293 296 297 299 298 298 298 296 296 296 295 295 295 293 293 293 295 293 293 293 293 293 293 292 291 291 292 291 292 293 292 292 293 293 294 293 292 292 292 292 293 294 294 294
Wind_Speed
1 3 6 10 9 11 13 13 14 15 8 5 10 13 8 11 16 15 12 5 8 7 12 8 7 10 14 18 17 17 18 19 20 22 22 18 18 16 16 15 15 15 15 15
3 3 7 9 11 11 11 12 9 10 5 6 3 9 8 14 12 14 11 9 7 10 17 23 20 1 4 9 13 15 17 18 20 20 22 15 15 14 14 13 14 16 16 16
4 5 8 6 11 11 4 5 7 5 3 7 9 4 3 8 17 15 4 15 15 17 18 17 24 22 18 10 3 9 13 14 17 17 13 12 9 7 8 10 12 15 18 17
4 4 6 9 7 8 5 8 4 7 3 2 4 2 4 5 10 8 9 19 18 18 21 21 21 23 23 21 13 9 8 9 10 14 13 13 11 11 9 8 7 7 7 11
3 6 8 9 7 8 8 15 5 7 3 2 6 3 4 4 6 7 16 17 15 18 19 19 20 17 16 23 21 19 15 10 6 6 7 7 6 7 7 8 9 8 7 7
3 3 3 4 14 9 16 7 5 3 2 4 10 2 5 4 4 4 9 16 15 11 17 19 13 12 17 25 23 21 20 16 17 14 9 11 9 6 7 5 3 2 1 2
4 3 3 2 9 2 14 7 1 1 3 4 9 6 2 8 8 4 5 8 6 9 11 9 12 20 20 29 24 19 19 19 17 18 12 14 9 9 5 3 5 3 2 2
3 2 7 5 4 6 9 6 3 3 3 3 8 6 6 6 5 3 3 6 5 7 8 9 5 10 16 16 22 22 19 20 22 13 12 13 9 9 4 4 4 5 4 4
2 3 3 2 2 3 5 4 4 1 2 2 3 0 1 4 9 10 11 10 10 10 7 5 8 5 8 6 10 11 15 16 15 17 17 14 14 11 8 7 5 6 3 1
1 5 1 4 3 3 3 3 2 1 1 3 3 3 4 4 6 8 10 10 9 9 10 9 9 7 2 3 6 5 2 3 4 4 4 6 7 5 5 5 5 4 5 5
2 2 1 3 5 4 4 2 3 1 2 1 3 4 2 2 4 7 8 7 8 10 10 9 11 12 9 10 8 7 4 2 1 2 1 1 3 3 1 3 6 4 6 8
1 1 4 1 1 1 2 4 3 3 1 2 2 4 3 5 5 6 7 7 7 8 9 8 10 10 11 12 11 9 9 6 4 3 4 4 3 2 1 2 3 6 7 8
3 1 3 1 2 1 2 3 3 3 1 2 1 6 3 8 8 5 7 6 5 6 7 8 10 11 13 13 13 12 13 12 10 6 5 4 3 1 1 3 4 4 3 3
0 1 3 2 2 2 3 4 3 2 2 1 1 8 8 9 11 8 6 5 5 5 6 7 8 10 10 11 14 15 16 15 14 11 7 4 3 3 2 1 0 2 3 3
2 3 2 3 2 3 5 7 5 2 0 3 2 12 11 11 11 8 6 5 4 5 7 8 8 10 11 12 13 14 15 18 17 14 11 9 5 3 2 2 1 1 2 2
2 3 2 3 3 3 4 9 7 6 3 2 3 7 6 8 9 8 6 5 4 5 5 5 7 9 10 11 11 11 13 15 15 15 15 13 10 6 5 4 3 3 3 2
4 4 3 2 3 4 6 9 10 5 4 5 6 5 12 8 10 11 8 5 3 3 4 6 7 7 6 8 10 12 13 13 13 13 13 12 11 9 6 5 4 4 4 4
5 4 1 1 2 4 1 3 1 6 4 6 1 7 8 9 7 8 6 5 3 3 1 2 4 6 7 10 11 13 14 14 14 14 14 13 12 8 5 5 6 7 7 7
1 4 3 2 3 6 3 5 5 6 8 10 8 9 7 8 7 4 4 3 1 3 5 4 4 5 6 7 9 12 13 13 13 13 14 13 12 10 8 5 6 7 8 8
4 3 2 3 3 4 1 2 4 3 4 11 10 10 11 9 7 7 8 4 2 3 3 4 5 5 5 6 9 11 12 12 12 13 13 13 12 10 8 6 5 6 8 8
4 2 6 3 4 7 7 5 4 5 2 9 11 11 13 7 0 5 6 3 3 5 4 5 6 9 10 10 11 12 12 12 12 11 11 10 10 9 7 5 4 5 6 7
9 8 4 3 3 9 8 6 7 1 3 8 6 8 9 4 6 5 2 3 3 4 6 6 8 9 11 10 11 14 14 14 12 11 12 11 10 8 6 4 3 5 6 8
6 6 6 9 5 1 9 2 3 4 6 5 9 8 8 6 5 4 3 3 3 5 7 7 8 11 13 12 12 14 16 15 15 15 15 14 11 9 8 6 5 7 9 9
5 4 3 4 6 10 8 9 3 6 5 7 5 7 6 6 6 4 2 3 5 7 9 12 13 15 19 17 17 18 20 19 19 19 18 16 16 14 13 11 11 12 13 12
3 11 6 4 4 2 8 11 9 8 4 5 4 5 7 5 4 3 3 4 6 9 10 10 11 14 19 18 19 18 17 18 19 22 25 25 21 20 18 18 17 18 18 17
6 6 7 7 8 7 7 14 12 10 9 9 7 5 5 6 4 4 4 6 8 12 13 16 16 16 21 22 24 25 21 18 19 20 23 26 28 28 24 22 22 22 22 20
Wind_Direction
16 297 342 329 302 284 303 290 284 284 280 250 231 222 62 39 34 14 1 346 34 20 15 95 192 185 187 179 190 197 194 196 194 203 208 205 211 219 229 233 233 232 235 237
235 294 346 308 309 300 307 281 303 311 187 218 89 79 86 52 48 26 354 47 35 35 42 40 31 93 225 193 196 194 201 202 204 208 206 210 214 224 230 235 237 239 237 236
293 327 324 310 324 335 320 301 306 275 90 38 109 96 49 58 53 14 341 68 51 44 46 37 25 23 38 46 225 204 204 203 201 202 191 195 192 209 217 231 242 248 243 242
274 308 322 313 336 349 293 8 349 340 185 132 357 93 41 35 51 336 13 48 48 42 52 47 15 14 26 20 62 104 117 159 197 208 205 198 207 217 223 231 241 254 247 246
31 302 324 316 324 327 284 326 323 359 44 129 22 101 13 8 13 326 43 42 48 48 52 46 17 357 7 44 45 64 71 98 125 174 203 204 218 231 238 239 246 261 266 271
279 283 260 297 306 287 292 297 221 156 326 43 349 339 32 2 300 353 54 68 51 35 50 57 12 2 6 32 40 49 54 55 61 58 59 99 91 86 73 26 26 35 260 266
331 251 309 286 315 289 340 347 316 81 39 46 343 56 39 334 333 350 24 29 80 71 68 49 35 14 10 25 15 34 46 40 49 43 32 60 31 40 29 2 24 32 16 348
360 197 359 5 7 313 318 3 18 12 7 21 9 22 5 328 6 54 345 320 28 52 68 78 65 28 25 20 21 12 30 39 42 34 30 36 34 36 57 89 67 63 41 41
335 258 320 239 340 354 349 33 344 62 141 88 32 319 94 354 45 48 49 43 42 57 74 95 75 65 26 18 48 26 17 27 20 18 21 1 15 3 349 14 7 5 17 76
46 293 304 322 317 172 311 344 285 24 15 90 80 43 61 41 53 72 66 66 59 67 70 74 83 83 86 48 64 59 97 50 53 60 18 359 340 327 315 340 343 288 255 232
294 275 332 278 30 358 337 357 28 11 336 120 131 111 55 92 100 86 73 66 73 65 55 55 58 63 63 72 84 91 91 79 72 68 319 296 278 301 235 165 162 170 189 188
55 316 270 258 323 260 265 327 310 306 146 43 59 122 81 108 93 94 81 68 67 70 72 60 50 48 52 49 53 52 56 62 70 116 165 178 190 175 176 96 159 176 179 177
161 247 298 178 146 142 17 345 332 307 303 173 178 146 109 128 127 120 116 99 76 69 65 62 51 41 34 31 36 36 32 30 31 32 38 32 31 49 154 178 178 155 173 165
136 199 259 315 12 332 303 324 350 325 282 183 172 146 162 160 151 149 136 112 84 67 53 51 46 40 36 32 29 23 24 25 28 33 35 30 357 347 324 318 171 154 162 165
206 232 243 258 246 258 261 279 291 285 271 259 154 170 167 167 161 149 129 121 107 65 49 38 34 29 27 26 25 23 22 22 23 23 24 17 350 325 303 298 308 268 224 210
165 195 173 270 249 279 280 263 256 251 219 160 185 165 156 147 145 154 152 143 98 63 53 35 26 21 19 17 13 14 18 20 21 17 13 9 5 349 322 302 289 281 276 269
160 154 157 241 327 315 263 239 208 193 201 171 187 187 160 165 172 160 158 150 103 43 16 10 5 4 6 3 4 4 5 11 16 19 16 11 5 352 328 293 273 256 242 233
140 115 43 260 281 242 97 159 206 214 202 199 166 157 170 162 148 159 165 158 161 206 245 320 325 336 347 355 355 358 1 2 5 7 9 8 6 356 329 279 259 257 255 250
206 143 114 214 226 307 225 197 184 186 221 197 167 151 142 131 131 160 195 209 285 339 332 313 313 326 334 337 347 352 353 352 356 357 359 0 358 353 342 301 253 235 229 225
105 70 199 164 211 235 236 162 175 174 254 181 181 168 159 159 172 181 189 199 250 302 316 330 326 327 337 325 334 338 339 340 340 344 348 352 351 350 345 322 271 246 234 231
138 93 197 174 233 281 234 144 168 183 240 153 179 175 166 179 174 133 149 194 264 296 314 313 311 317 327 329 327 322 324 329 326 330 333 337 341 341 342 330 288 259 239 224
174 161 176 136 199 256 162 126 199 143 137 150 158 165 169 163 154 142 171 241 265 307 333 317 306 313 325 325 322 316 316 325 313 310 316 315 323 326 325 305 262 231 218 209
211 198 180 201 211 123 189 252 201 176 149 156 151 171 177 158 174 180 198 234 269 296 312 331 326 324 331 337 335 320 327 323 313 299 300 301 298 293 291 276 246 221 218 215
225 190 211 160 205 220 209 216 243 194 169 153 142 154 171 179 181 193 239 283 308 331 338 337 333 326 316 322 319 312 314 314 304 291 277 274 275 275 270 260 246 233 225 218
177 160 176 256 260 288 233 217 197 189 170 135 128 167 183 170 186 211 246 283 317 320 316 314 311 302 304 318 315 313 310 306 304 300 294 283 270 263 258 251 249 245 245 241
186 175 185 216 191 196 205 197 191 180 192 183 171 177 178 183 206 209 274 303 295 297 309 320 325 322 321 322 319 320 323 308 295 286 285 286 284 273 261 252 253 249 248 242